EHI
0 0 0 0 0 0 0 0 0 0 0 0 0 0 0 0 0 0 0 0 0 0 0 0 0 0 0 0 0 0 0 0 0 0 0 0 0 0
0 0 0 0 0 0 0 0 0 0 0 0 0 0 0 0 0 0 0 0 0 0 0 0 0 0 0 0 0 0 0 0 0 0 0 0 0 0
0 0 0 0 0 0 0 0 0 0 0 0 0 0 0 0 0 0 0 0 0 0 0 0 0 0 0 0 0 0 0 0 0 0 0 0 0 0
0 0 0 0 0 0 0 0 0 0 0 0 0 0 0 0 0 0 0 0 0 0 0 0 0 0 0 0 0 0 0 0 0 0 0 0 0 0
0 0 0 0 0 0 0 0 0 0 0 0 0 0 0 0 0 0 0 0 0 0 0 0 0 0 0 0 0 0 0 0 0 0 0 0 0 0
0 0 0 0 0 0 0 0 0 0 0 0 0 0 0 0 0 0 0 0 0 0 0 0 0 0 0 0 0 0 0 0 0 0 0 0 0 0
0 0 0 0 0 0 0 0 0 0 0 0 0 0 0 0 0 0 0 0 0 0 0 0 0 0 0 0 0 0 0 0 0 0 0 0 0 0
0 0 0 0 0 0 0 0 0 0 0 0 0 0 0 0 0 0 0 0 0 0 0 0 0 0 0 0 0 0 0 0 0 0 0 0 0 0
0 0 0 0 0 0 0 0 0 0 0 0 0 0 0 0 0 0 0 0 0 0 0 0 0 0 0 0 0 0 0 0 0 0 0 0 0 0
0 0 0 0 0 0 0 0 0 0 0 0 0 0 0 0 0 0 0 0 0 0 0 0 0 0 0 0 0 0 0 0 0 0 0 0 0 0
0 0 0 0 0 0 0 0 0 0 0 0 0 0 0 0 0 0 0 0 0 0 0 0 0 0 0 0 0 0 0 0 0 0 0 0 0 0
0 0 0 0 0 0 0 0 0 0 0 0 0 0 0 0 0 0 0 0 0 0 0 0 0 0 0 0 0 0 0 0 0 0 0 0 0 0
0 0 0 0 0 0 0 0 0 0 0 0 0 0 0 0 0 0 0 0 0 0 0 0 0 0 0 0 0 0 0 0 0 0 0 0 0 0
0 0 0 0 0 0 0 0 0 0 0 0 0 0 0 0 0 0 0 0 0 0 0 0 0 0 0 0 0 0 0 0 0 0 0 0 0 0
0 0 0 0 0 0 0 0 0 0 0 0 0 0 0 0 0 0 0 0 0 0 0 0 0 0 0 0 0 0 0 0 0 0 0 0 0 0
0 0 0 0 0 0 0 0 0 0 0 0 0 0 0 0 0 0 0 0 0 0 0 0 0 0 0 0 0 0 0 0 0 0 0 0 0 0
0 0 0 0 0 0 0 0 0 0 0 0 0 0 0 0 0 0 0 0 0 0 0 0 0 0 0 0 0 0 0 0 0 0 0 0 0 0
0 0 0 0 0 0 0 0 0 0 0 0 0 0 0 0 0 0 0 0 0 0 0 0 0 0 0 0 0 0 0 0 0 0 0 0 0 0
0 0 0 0 0 0 0 0 0 0 0 0 0 0 0 0 0 0 0 0 0 0 0 0 0 0 0 0 0 0 0 0 0 0 0 0 0 0
0 0 0 0 0 0 0 0 0 0 0 0 0 0 0 0 0 0 0 0 0 0 0 0 0 0 0 0 0 0 0 0 0 0 0 0 0 0
0 0 0 0 0 0 0 0 0 0 0 0 0 0 0 0 0 0 0 0 0 0 0 0 0 0 0 0 0 0 0 0 0 0 0 0 0 0
0 0 0 0 0 0 0 0 0 0 0 0 0 0 0 0 0 0 0 0 0 0 0 0 0 0 0 0 0 0 0 0 0 0 0 0 0 0
0 0 0 0 0 0 0 0 0 0 0 0 0 0 0 0 0 0 0 0 0 0 0 0 0 0 0 0 0 0 0 0 0 0 0 0 0 0
Wind_Speed
7 7 5 4 3 3 3 4 4 2 3 2 1 1 2 2 1 1 0 3 4 5 6 7 8 9 10 11 13 14 15 16 17 18 18 19 20 20
7 8 6 4 4 3 3 3 3 4 3 2 2 2 2 2 1 1 1 3 4 5 6 7 8 9 10 11 12 13 14 15 16 17 18 19 20 20
8 9 8 7 5 4 3 3 3 3 3 1 1 1 2 2 1 0 0 1 1 4 6 7 8 9 9 10 11 12 14 15 16 17 18 19 20 20
11 10 9 7 7 5 4 4 3 3 3 3 1 1 1 2 1 0 1 1 1 3 5 7 8 8 9 9 10 12 13 14 16 17 18 18 19 20
11 10 10 9 8 6 6 5 4 3 3 3 2 1 1 1 1 1 2 2 2 2 4 6 8 8 9 9 10 11 12 14 15 16 17 17 18 19
9 9 9 10 10 9 7 6 5 4 3 3 2 1 1 1 1 1 2 2 2 2 4 6 7 7 9 10 10 11 12 14 15 16 17 17 18 18
8 8 8 10 10 9 7 6 6 5 4 3 2 2 1 1 1 0 1 2 2 1 2 3 3 2 4 6 8 10 12 13 15 16 17 17 17 18
9 8 8 9 10 11 10 10 9 8 6 4 3 3 2 2 1 0 1 1 2 2 2 3 2 2 3 2 7 10 12 14 15 15 16 17 17 17
10 9 7 7 10 8 9 9 7 8 8 6 5 4 4 3 3 2 1 0 2 2 2 3 2 3 3 4 8 10 12 14 15 16 16 16 17 17
10 10 10 9 9 10 8 7 5 4 5 4 5 4 4 3 4 3 2 1 2 1 2 1 3 4 4 3 7 10 13 14 15 16 16 16 16 16
9 9 10 10 15 16 11 9 6 4 6 8 8 7 7 7 6 4 2 2 1 1 1 1 2 4 4 2 4 10 13 14 16 16 16 16 16 15
7 8 12 13 17 17 12 11 9 6 6 6 7 7 6 6 6 4 3 2 1 1 1 1 1 3 4 3 3 4 6 11 15 16 16 17 17 8
8 7 8 16 17 17 13 9 11 10 7 6 5 5 4 3 3 2 2 2 1 1 1 1 1 2 2 4 5 3 3 5 6 7 12 16 17 12
8 7 9 17 17 16 11 12 16 13 6 6 5 4 3 2 2 2 2 2 1 2 2 1 1 1 2 4 5 5 5 5 4 4 5 12 13 15
7 13 15 18 16 12 13 16 14 8 7 6 5 4 3 3 3 2 3 2 2 2 1 0 1 1 2 3 4 5 6 5 4 5 5 6 5 6
8 13 17 17 11 11 12 10 6 6 6 6 5 4 3 3 3 2 1 1 2 2 2 1 1 2 2 4 4 5 4 5 6 6 6 6 5 5
10 8 7 7 7 6 6 6 5 5 5 5 5 5 4 3 2 2 1 1 1 1 2 2 2 2 3 3 3 4 4 5 5 6 7 7 6 5
12 9 8 8 8 8 8 6 5 5 5 5 5 5 4 4 3 2 1 1 0 0 1 2 3 4 3 3 4 3 3 4 5 6 5 6 7 6
8 8 8 8 8 7 7 7 6 5 5 5 5 5 4 4 3 2 1 1 0 0 1 1 1 2 4 5 5 3 3 6 6 6 5 5 6 8
6 8 8 8 8 8 8 7 6 6 5 5 5 5 4 4 3 3 2 1 1 0 1 1 1 2 2 3 4 5 7 5 5 6 6 5 6 9
6 6 7 7 8 8 8 7 7 7 6 6 5 5 5 4 3 3 2 2 1 0 1 1 2 4 2 2 3 5 5 6 7 5 5 5 5 5
7 7 7 7 7 8 8 8 7 7 7 5 5 5 4 4 4 4 3 2 1 0 1 1 2 2 1 2 4 5 6 7 8 9 7 5 3 4
7 7 7 8 7 7 7 8 8 7 6 6 5 5 5 4 3 3 3 2 2 1 1 1 2 2 2 2 3 4 6 7 6 6 5 9 11 11
Wind_Direction
183 182 178 178 174 170 156 153 158 187 228 203 163 144 129 124 110 97 227 300 321 327 332 335 337 338 338 339 339 339 339 337 337 336 335 336 337 338
180 180 184 178 174 171 167 163 160 168 204 194 153 139 120 120 112 121 242 315 313 319 330 335 336 336 338 340 340 339 339 338 339 339 338 338 339 338
181 183 186 178 174 174 166 163 168 159 189 206 96 105 112 138 113 96 257 291 294 316 327 331 335 337 340 341 341 340 342 343 341 339 339 339 339 337
185 182 184 176 175 172 169 172 177 172 169 188 167 129 140 149 121 352 338 343 308 310 336 336 335 336 338 341 343 343 344 342 341 340 339 339 339 338
184 184 182 177 181 176 171 176 176 166 157 159 167 144 105 90 66 1 343 332 323 334 344 335 330 333 338 340 342 344 345 343 342 341 340 340 339 338
181 182 181 182 183 178 177 175 163 160 160 152 150 144 112 82 81 4 324 324 322 352 347 334 329 333 335 338 342 345 343 343 342 341 340 340 339 337
176 178 178 176 176 174 170 169 164 165 163 160 158 135 138 120 186 210 304 323 318 348 338 317 319 317 325 332 337 340 342 344 344 342 340 339 338 337
176 174 170 170 167 165 163 163 165 169 173 170 174 174 185 177 147 123 68 5 301 313 341 309 322 320 316 312 331 341 344 344 343 342 341 340 340 339
174 169 165 166 161 159 154 148 154 160 165 167 170 180 171 176 159 156 152 271 260 285 349 300 310 316 316 324 336 343 345 345 344 342 342 342 343 342
171 169 166 164 164 156 147 142 137 136 149 148 155 158 152 154 159 157 149 43 332 343 38 305 309 316 318 310 328 342 344 344 344 343 344 345 345 346
166 165 164 166 163 153 148 146 136 123 108 116 116 117 115 113 112 107 99 65 349 309 23 356 312 320 312 299 318 333 338 340 342 344 344 345 346 348
160 164 165 164 162 158 158 156 154 150 132 117 107 101 98 105 103 117 142 120 50 286 326 8 328 343 322 304 312 316 326 334 340 342 343 344 345 345
163 165 166 162 162 162 159 162 158 145 140 131 121 112 99 93 89 87 101 134 140 232 245 28 327 333 299 305 308 312 323 321 324 330 338 341 344 345
164 161 159 158 159 158 155 148 141 135 133 132 129 130 129 123 107 95 85 73 98 206 231 189 222 277 302 305 301 314 320 314 319 323 324 334 339 339
154 154 151 152 151 153 149 144 140 138 140 141 147 150 146 137 117 94 73 62 33 354 322 281 240 270 274 282 297 307 316 317 326 330 324 323 318 321
139 142 142 142 138 139 142 141 138 145 146 148 144 136 129 126 124 112 92 59 32 350 340 335 294 271 279 277 280 293 302 306 321 324 320 314 311 312
136 129 132 139 139 137 133 131 133 137 134 132 135 136 135 129 127 116 102 77 48 331 325 326 316 297 270 263 279 287 299 305 310 318 323 319 312 311
139 144 149 153 154 153 151 147 146 149 145 141 142 143 144 143 137 131 110 88 60 328 320 318 339 347 345 308 246 277 299 306 314 316 318 317 313 313
143 151 156 158 156 154 155 154 154 152 146 145 145 145 143 142 142 149 148 118 68 344 314 324 350 3 349 328 302 270 304 314 317 317 313 309 302 305
151 156 159 158 156 156 155 152 148 148 147 147 145 146 147 147 150 159 164 160 144 8 340 341 338 335 318 298 295 293 297 304 312 314 313 307 294 298
153 154 155 154 154 153 152 151 151 154 152 150 150 150 152 151 155 158 159 161 118 116 306 297 297 324 313 305 311 308 302 308 315 306 310 316 318 321
153 153 151 150 150 150 150 150 150 151 151 151 153 152 153 155 157 156 155 156 153 126 339 320 323 336 341 331 322 316 316 321 323 324 315 303 313 321
154 152 150 149 149 149 150 152 153 154 155 155 154 153 153 151 149 147 146 141 129 104 65 15 354 349 328 316 316 317 321 326 329 333 327 329 325 313